Terminal Aerodrome Forecast
Issued by NWS Boston, MA

Home | Current Version | Previous Version | Text Only | Print | Product List | Glossary On
Versions: 1 2 3 4 5 6 7 8 9 10 11 12 13 14 15 16 17 18 19 20 21 22 23 24 25 26 27 28 29 30 31 32 33 34 35 36 37 38 39 40 41 42 43 44 45 46 47 48 49
331
FTUS41 KBOX 101137
TAFBDL
TAF
KBDL 101137Z 1012/1118 00000KT 1SM -SN OVC015
     FM101400 VRB03KT 2SM -SN OVC008
     FM101600 VRB03KT 3SM -SN OVC015
     FM101800 24004KT P6SM OVC015
     FM101900 24005KT P6SM OVC025
     FM102000 26005KT P6SM BKN035
     FM111400 30009KT P6SM VCSH BKN045=

USA.gov is the U.S. government's official web portal to all federal, state and local government web resources and services.